Location: *
(49.9853°N, 3.5569°E)
Time: 00:05:55
(UTC+00:00)

Cosmos 2366 rocket - Pass Details

Date: 22 September 2019
Orbit: 956 x 996 km, 82.9° (Epoch: 20 October)

Event Time Altitude Azimuth Distance (km) Brightness Sun altitude
Rises 18:42:31 0° 353° (N) 3,728 7.3 -10.1°
Reaches altitude 10° 18:45:12 10° 0° (N) 2,776 6.6 -10.5°
Maximum altitude 18:51:17 44° 72° (ENE) 1,356 4.4 -11.4°
Drops below altitude 10° 18:57:17 10° 143° (SE) 2,755 5.9 -12.4°
Enters shadow 18:58:01 - 146° (SE) 3,012 6.1 -12.5°
